| time (UTC) | temp F | wind direction | speed knots | gust knots | rain 1hr in | rain 24hr in | rain mn in | humidity % | barometer mb |
| 20260508043502 | 38 | 272 | 1.7 | 4.3 | 0.00 | 0.03 | 0.00 | 86 | 1015.3 |
| 20260508043010 | 38 | 352 | 0.9 | 4.3 | 0.00 | 0.03 | 0.00 | 86 | 1015.2 |
| 20260508042506 | 39 | 277 | 2.6 | 5.2 | 0.00 | 0.03 | 0.00 | 85 | 1015.2 |
| 20260508042007 | 39 | 324 | 2.6 | 6.1 | 0.00 | 0.03 | 0.00 | 85 | 1015.2 |
| 20260508041517 | 39 | 317 | 1.7 | 6.1 | 0.00 | 0.03 | 0.00 | 84 | 1015.1 |
| 20260508041008 | 39 | 304 | 2.6 | 4.3 | 0.00 | 0.03 | 0.00 | 84 | 1015.1 |
| 20260508040505 | 39 | 277 | 2.6 | 5.2 | 0.00 | 0.03 | 0.00 | 85 | 1015.1 |
| 20260508040021 | 39 | 281 | 1.7 | 5.2 | 0.00 | 0.03 | 0.00 | 84 | 1015.0 |
| 20260508035507 | 40 | 296 | 2.6 | 6.1 | 0.00 | 0.03 | 0.03 | 84 | 1015.0 |
| 20260508035007 | 40 | 283 | 1.7 | 6.1 | 0.00 | 0.03 | 0.03 | 83 | 1015.0 |
| 20260508034526 | 40 | 283 | 0.9 | 6.1 | 0.00 | 0.03 | 0.03 | 83 | 1014.9 |
| 20260508034007 | 40 | 277 | 3.5 | 6.1 | 0.00 | 0.03 | 0.03 | 84 | 1014.8 |
| 20260508033510 | 40 | 319 | 0.9 | 5.2 | 0.00 | 0.03 | 0.03 | 84 | 1014.7 |
| 20260508033026 | 41 | 304 | 1.7 | 5.2 | 0.00 | 0.03 | 0.03 | 83 | 1014.7 |
| 20260508032508 | 41 | 284 | 2.6 | 5.2 | 0.00 | 0.03 | 0.03 | 82 | 1014.6 |
| 20260508032006 | 41 | 269 | 2.6 | 5.2 | 0.00 | 0.03 | 0.03 | 82 | 1014.6 |
| 20260508031514 | 41 | 319 | 1.7 | 6.1 | 0.00 | 0.03 | 0.03 | 82 | 1014.5 |
| 20260508031007 | 41 | 238 | 2.6 | 6.1 | 0.00 | 0.03 | 0.03 | 82 | 1014.4 |
| 20260508030506 | 41 | 300 | 2.6 | 5.2 | 0.00 | 0.03 | 0.03 | 82 | 1014.4 |
| 20260508030017 | 41 | 264 | 1.7 | 5.2 | 0.00 | 0.03 | 0.03 | 82 | 1014.4 |
| 20260508025506 | 41 | 315 | 2.6 | 4.3 | 0.00 | 0.03 | 0.03 | 82 | 1014.5 |
| 20260508025006 | 42 | 248 | 1.7 | 4.3 | 0.00 | 0.03 | 0.03 | 82 | 1014.3 |
| 20260508024527 | 42 | 332 | 0.9 | 4.3 | 0.00 | 0.03 | 0.03 | 82 | 1014.3 |
| 20260508024008 | 42 | 323 | 1.7 | 4.3 | 0.00 | 0.03 | 0.03 | 82 | 1014.2 |
| 20260508023506 | 42 | 308 | 2.6 | 4.3 | 0.00 | 0.03 | 0.03 | 83 | 1014.1 |
| 20260508023034 | 42 | 298 | 1.7 | 4.3 | 0.00 | 0.03 | 0.03 | 82 | 1014.1 |
| 20260508022510 | 42 | 320 | 1.7 | 4.3 | 0.00 | 0.03 | 0.03 | 83 | 1014.0 |
| 20260508022013 | 42 | 273 | 0.9 | 3.5 | 0.00 | 0.03 | 0.03 | 83 | 1013.9 |
| 20260508021527 | 43 | 299 | 0.9 | 2.6 | 0.00 | 0.03 | 0.03 | 82 | 1013.9 |
| 20260508021009 | 43 | 298 | 0.9 | 3.5 | 0.00 | 0.03 | 0.03 | 81 | 1013.9 |
| 20260508020505 | 43 | 298 | 0.9 | 3.5 | 0.00 | 0.03 | 0.03 | 81 | 1013.8 |
| 20260508020013 | 43 | 303 | 1.7 | 3.5 | 0.00 | 0.03 | 0.03 | 80 | 1013.8 |
| 20260508015502 | 44 | 277 | 0.9 | 2.6 | 0.00 | 0.03 | 0.03 | 79 | 1013.7 |
| 20260508015005 | 44 | 316 | 0.9 | 3.5 | 0.00 | 0.03 | 0.03 | 78 | 1013.7 |
| 20260508014503 | 44 | 316 | 1.7 | 3.5 | 0.00 | 0.03 | 0.03 | 77 | 1013.7 |
| 20260508014004 | 45 | 324 | 0.9 | 3.5 | 0.00 | 0.03 | 0.03 | 77 | 1013.6 |
| 20260508013504 | 45 | 316 | 1.7 | 3.5 | 0.00 | 0.03 | 0.03 | 75 | 1013.5 |
| 20260508013004 | 46 | 319 | 0.9 | 3.5 | 0.00 | 0.03 | 0.03 | 73 | 1013.4 |
| 20260508012505 | 46 | 302 | 0.9 | 3.5 | 0.00 | 0.03 | 0.03 | 73 | 1013.3 |
| 20260508012004 | 47 | 297 | 0.0 | 3.5 | 0.00 | 0.03 | 0.03 | 71 | 1013.2 |
| 20260508011505 | 47 | 321 | 1.7 | 3.5 | 0.00 | 0.03 | 0.03 | 70 | 1013.2 |
| 20260508011006 | 48 | 314 | 0.9 | 2.6 | 0.00 | 0.03 | 0.03 | 69 | 1013.1 |
| 20260508010503 | 48 | 284 | 0.0 | 2.6 | 0.00 | 0.03 | 0.03 | 68 | 1013.0 |
| 20260508010011 | 48 | 313 | 1.7 | 3.5 | 0.00 | 0.03 | 0.03 | 65 | 1012.9 |
| 20260508005502 | 49 | 313 | 1.7 | 3.5 | 0.00 | 0.03 | 0.03 | 64 | 1012.9 |
| 20260508005005 | 49 | 313 | 0.9 | 3.5 | 0.00 | 0.03 | 0.03 | 63 | 1012.8 |
| 20260508004509 | 50 | 322 | 0.0 | 3.5 | 0.00 | 0.03 | 0.03 | 62 | 1012.8 |
| 20260508004008 | 50 | 322 | 0.9 | 3.5 | 0.00 | 0.03 | 0.03 | 61 | 1012.8 |
| 20260508003505 | 51 | 294 | 0.0 | 2.6 | 0.00 | 0.03 | 0.03 | 59 | 1012.7 |
| 20260508003011 | 51 | 294 | 0.9 | 2.6 | 0.00 | 0.03 | 0.03 | 56 | 1012.6 |
| 20260508002502 | 52 | 323 | 0.9 | 6.1 | 0.00 | 0.04 | 0.03 | 56 | 1012.5 |
| 20260508002005 | 53 | 323 | 0.9 | 6.1 | 0.00 | 0.04 | 0.03 | 52 | 1012.4 |
| 20260508001504 | 53 | 305 | 0.0 | 7.8 | 0.00 | 0.04 | 0.03 | 51 | 1012.4 |
| 20260508001021 | 53 | 225 | 2.6 | 7.8 | 0.00 | 0.04 | 0.03 | 50 | 1012.3 |
| 20260508000502 | 53 | 311 | 1.7 | 10.4 | 0.00 | 0.04 | 0.03 | 51 | 1012.4 |
| 20260508000009 | 53 | 298 | 6.1 | 10.4 | 0.00 | 0.04 | 0.03 | 48 | 1012.2 |
| 20260507235503 | 53 | 296 | 5.2 | 10.4 | 0.00 | 0.04 | 0.03 | 48 | 1012.2 |
| 20260507235003 | 53 | 306 | 5.2 | 11.3 | 0.00 | 0.04 | 0.03 | 48 | 1012.2 |
| 20260507234517 | 54 | 300 | 4.3 | 12.2 | 0.00 | 0.04 | 0.03 | 48 | 1012.1 |
| 20260507234003 | 54 | 322 | 6.1 | 12.2 | 0.00 | 0.05 | 0.03 | 47 | 1012.0 |
| 20260507233503 | 54 | 307 | 7.8 | 12.2 | 0.00 | 0.05 | 0.03 | 47 | 1011.9 |
| 20260507233012 | 54 | 304 | 7.0 | 12.2 | 0.00 | 0.05 | 0.03 | 48 | 1011.9 |
| 20260507232510 | 55 | 352 | 6.1 | 12.2 | 0.00 | 0.05 | 0.03 | 47 | 1011.8 |
| 20260507232005 | 55 | 296 | 6.1 | 9.6 | 0.00 | 0.05 | 0.03 | 47 | 1011.8 |
| 20260507231513 | 56 | 301 | 3.5 | 10.4 | 0.00 | 0.05 | 0.03 | 47 | 1011.7 |
| 20260507231002 | 55 | 308 | 4.3 | 11.3 | 0.00 | 0.05 | 0.03 | 47 | 1011.7 |
| 20260507230502 | 55 | 309 | 5.2 | 12.2 | 0.00 | 0.05 | 0.03 | 48 | 1011.7 |
| 20260507230005 | 55 | 310 | 6.1 | 13.0 | 0.00 | 0.05 | 0.03 | 49 | 1011.6 |
| 20260507225504 | 55 | 311 | 6.1 | 13.9 | 0.00 | 0.05 | 0.03 | 47 | 1011.7 |
| 20260507225008 | 56 | 306 | 8.7 | 13.9 | 0.00 | 0.05 | 0.03 | 47 | 1011.6 |
| 20260507224514 | 56 | 340 | 5.2 | 13.9 | 0.00 | 0.05 | 0.03 | 47 | 1011.6 |
| 20260507224004 | 56 | 286 | 8.7 | 13.9 | 0.00 | 0.05 | 0.03 | 46 | 1011.6 |
| 20260507223504 | 56 | 287 | 6.1 | 18.2 | 0.00 | 0.05 | 0.03 | 46 | 1011.4 |
| 20260507223014 | 56 | 336 | 7.8 | 18.2 | 0.00 | 0.05 | 0.03 | 47 | 1011.4 |
| 20260507222507 | 56 | 317 | 9.6 | 15.6 | 0.00 | 0.05 | 0.03 | 45 | 1011.5 |
| 20260507222006 | 57 | 250 | 10.4 | 15.6 | 0.00 | 0.05 | 0.03 | 45 | 1011.4 |
| 20260507221516 | 57 | 309 | 7.0 | 17.4 | 0.00 | 0.05 | 0.03 | 46 | 1011.2 |
| 20260507221006 | 57 | 309 | 10.4 | 17.4 | 0.00 | 0.05 | 0.03 | 46 | 1011.2 |
| 20260507220506 | 57 | 312 | 8.7 | 17.4 | 0.00 | 0.05 | 0.03 | 47 | 1011.2 |
| 20260507220016 | 57 | 325 | 2.6 | 13.9 | 0.00 | 0.05 | 0.03 | 50 | 1011.2 |
| 20260507215509 | 57 | 339 | 7.8 | 13.9 | 0.00 | 0.05 | 0.03 | 47 | 1011.1 |
| 20260507215006 | 57 | 301 | 6.1 | 13.0 | 0.00 | 0.05 | 0.03 | 47 | 1011.0 |
| 20260507214506 | 57 | 302 | 6.1 | 12.2 | 0.00 | 0.05 | 0.03 | 47 | 1010.9 |
| 20260507214004 | 57 | 336 | 5.2 | 11.3 | 0.00 | 0.05 | 0.03 | 48 | 1010.9 |
| 20260507213505 | 57 | 319 | 2.6 | 13.0 | 0.00 | 0.05 | 0.03 | 52 | 1011.0 |
| 20260507213009 | 56 | 325 | 6.1 | 13.9 | 0.00 | 0.05 | 0.03 | 49 | 1010.9 |
| 20260507212506 | 56 | 325 | 8.7 | 14.8 | 0.00 | 0.05 | 0.03 | 48 | 1010.9 |
| 20260507212006 | 57 | 338 | 8.7 | 14.8 | 0.00 | 0.05 | 0.03 | 47 | 1010.8 |
| 20260507211514 | 57 | 276 | 3.5 | 11.3 | 0.00 | 0.05 | 0.03 | 51 | 1010.7 |
| 20260507211006 | 56 | 332 | 5.2 | 11.3 | 0.00 | 0.05 | 0.03 | 49 | 1010.6 |
| 20260507210505 | 56 | 325 | 4.3 | 14.8 | 0.00 | 0.05 | 0.03 | 49 | 1010.6 |
| 20260507210018 | 55 | 297 | 7.8 | 14.8 | 0.00 | 0.05 | 0.03 | 49 | 1010.7 |
| 20260507205509 | 56 | 360 | 7.0 | 12.2 | 0.00 | 0.05 | 0.03 | 50 | 1010.6 |
| 20260507205008 | 56 | 334 | 5.2 | 17.4 | 0.00 | 0.05 | 0.03 | 50 | 1010.6 |
| 20260507204518 | 56 | 335 | 9.6 | 17.4 | 0.00 | 0.05 | 0.03 | 50 | 1010.6 |
| 20260507204006 | 56 | 130 | 1.7 | 8.7 | 0.00 | 0.05 | 0.03 | 52 | 1010.6 |
| 20260507203508 | 56 | 324 | 2.6 | 8.7 | 0.00 | 0.05 | 0.03 | 51 | 1010.6 |
| 20260507203010 | 56 | 32 | 3.5 | 7.8 | 0.00 | 0.05 | 0.03 | 54 | 1010.7 |
| 20260507202502 | 56 | 23 | 2.6 | 13.9 | 0.00 | 0.05 | 0.03 | 53 | 1010.7 |
| 20260507202007 | 56 | 360 | 2.6 | 13.9 | 0.00 | 0.05 | 0.03 | 53 | 1010.8 |
| 20260507201521 | 57 | 326 | 5.2 | 13.0 | 0.00 | 0.06 | 0.03 | 52 | 1010.8 |
| 20260507201009 | 57 | 329 | 3.5 | 17.4 | 0.00 | 0.06 | 0.03 | 53 | 1010.7 |
| 20260507200506 | 57 | 5 | 7.0 | 17.4 | 0.00 | 0.06 | 0.03 | 50 | 1010.7 |
| 20260507200030 | 57 | 322 | 7.8 | 11.3 | 0.00 | 0.06 | 0.03 | 53 | 1010.8 |
| 20260507195505 | 56 | 340 | 4.3 | 9.6 | 0.00 | 0.06 | 0.03 | 52 | 1011.0 |
| 20260507195008 | 57 | 352 | 3.5 | 13.0 | 0.00 | 0.06 | 0.03 | 53 | 1011.0 |
| 20260507194524 | 58 | 298 | 6.1 | 15.6 | 0.00 | 0.06 | 0.03 | 54 | 1011.0 |
| 20260507194009 | 58 | 153 | 3.5 | 15.6 | 0.00 | 0.06 | 0.03 | 49 | 1010.9 |
| 20260507193509 | 58 | 296 | 8.7 | 12.2 | 0.00 | 0.06 | 0.03 | 53 | 1011.0 |
| 20260507193027 | 58 | 300 | 7.0 | 13.9 | 0.00 | 0.06 | 0.03 | 50 | 1010.9 |
| 20260507192508 | 57 | 242 | 7.0 | 13.9 | 0.00 | 0.06 | 0.03 | 50 | 1010.9 |
| 20260507192008 | 57 | 340 | 7.0 | 15.6 | 0.00 | 0.06 | 0.03 | 51 | 1011.0 |
| 20260507191510 | 57 | 299 | 7.8 | 15.6 | 0.00 | 0.06 | 0.03 | 51 | 1011.1 |
| 20260507191006 | 56 | 288 | 8.7 | 15.6 | 0.00 | 0.06 | 0.03 | 53 | 1011.1 |
| 20260507190506 | 56 | 304 | 9.6 | 14.8 | 0.00 | 0.06 | 0.03 | 55 | 1011.1 |
| 20260507190031 | 56 | 317 | 4.3 | 13.0 | 0.00 | 0.06 | 0.03 | 52 | 1011.0 |
| 20260507185506 | 56 | 247 | 6.1 | 13.9 | 0.00 | 0.06 | 0.03 | 54 | 1011.0 |
| 20260507185010 | 57 | 264 | 7.8 | 13.9 | 0.00 | 0.06 | 0.03 | 55 | 1011.2 |
| 20260507184533 | 57 | 311 | 6.1 | 13.0 | 0.00 | 0.06 | 0.03 | 56 | 1011.4 |
| 20260507184006 | 56 | 344 | 8.7 | 13.0 | 0.00 | 0.06 | 0.03 | 55 | 1011.5 |
| 20260507183509 | 56 | 338 | 5.2 | 13.9 | 0.00 | 0.06 | 0.03 | 59 | 1011.5 |
| 20260507183026 | 55 | 317 | 3.5 | 15.6 | 0.00 | 0.06 | 0.03 | 56 | 1011.3 |
| 20260507182510 | 56 | 317 | 8.7 | 15.6 | 0.00 | 0.06 | 0.03 | 59 | 1011.5 |
| 20260507182011 | 55 | 296 | 6.1 | 13.9 | 0.00 | 0.06 | 0.03 | 58 | 1011.4 |
| 20260507181524 | 56 | 314 | 8.7 | 13.9 | 0.00 | 0.06 | 0.03 | 56 | 1011.4 |
| 20260507181006 | 56 | 336 | 8.7 | 13.9 | 0.00 | 0.06 | 0.03 | 57 | 1011.2 |
| 20260507180506 | 56 | 9 | 6.1 | 12.2 | 0.00 | 0.06 | 0.03 | 58 | 1011.2 |
| 20260507180014 | 55 | 305 | 5.2 | 16.5 | 0.00 | 0.06 | 0.03 | 57 | 1011.3 |
| 20260507175504 | 55 | 327 | 7.8 | 16.5 | 0.00 | 0.06 | 0.03 | 61 | 1011.3 |
| 20260507175003 | 55 | 327 | 5.2 | 12.2 | 0.00 | 0.06 | 0.03 | 59 | 1011.3 |
| 20260507174503 | 55 | 346 | 6.1 | 10.4 | 0.00 | 0.06 | 0.03 | 60 | 1011.4 |
| 20260507174003 | 55 | 352 | 4.3 | 8.7 | 0.00 | 0.06 | 0.03 | 59 | 1011.4 |
| 20260507173505 | 55 | 314 | 3.5 | 13.0 | 0.00 | 0.06 | 0.03 | 60 | 1011.4 |
| 20260507173004 | 55 | 346 | 4.3 | 13.9 | 0.00 | 0.06 | 0.03 | 58 | 1011.6 |
| 20260507172503 | 55 | 325 | 7.0 | 13.9 | 0.00 | 0.06 | 0.03 | 58 | 1011.7 |
| 20260507172002 | 54 | 326 | 1.7 | 10.4 | 0.00 | 0.06 | 0.03 | 62 | 1011.7 |
| 20260507171507 | 54 | 311 | 4.3 | 11.3 | 0.00 | 0.06 | 0.03 | 60 | 1011.9 |
| 20260507171003 | 54 | 325 | 7.0 | 11.3 | 0.00 | 0.06 | 0.03 | 61 | 1012.0 |
| 20260507170503 | 53 | 360 | 1.7 | 9.6 | 0.00 | 0.06 | 0.03 | 63 | 1012.0 |
| 20260507170015 | 53 | 28 | 4.3 | 13.0 | 0.00 | 0.06 | 0.03 | 61 | 1012.2 |
| 20260507165504 | 53 | 5 | 3.5 | 13.0 | 0.00 | 0.06 | 0.03 | 63 | 1012.3 |
| 20260507165002 | 53 | 331 | 7.0 | 11.3 | 0.00 | 0.06 | 0.03 | 64 | 1012.3 |
| 20260507164503 | 53 | 335 | 7.8 | 11.3 | 0.00 | 0.06 | 0.03 | 61 | 1012.3 |
| 20260507164004 | 53 | 346 | 4.3 | 7.8 | 0.00 | 0.06 | 0.03 | 63 | 1012.4 |
| 20260507163503 | 53 | 278 | 3.5 | 7.8 | 0.00 | 0.06 | 0.03 | 64 | 1012.4 |
| 20260507163003 | 53 | 319 | 1.7 | 9.6 | 0.00 | 0.06 | 0.03 | 64 | 1012.5 |
| 20260507162503 | 52 | 360 | 5.2 | 9.6 | 0.00 | 0.06 | 0.03 | 64 | 1012.7 |
| 20260507162003 | 52 | 283 | 2.6 | 9.6 | 0.00 | 0.06 | 0.03 | 64 | 1012.7 |
| 20260507161504 | 52 | 305 | 5.2 | 10.4 | 0.00 | 0.06 | 0.03 | 66 | 1012.8 |
| 20260507161003 | 52 | 352 | 4.3 | 10.4 | 0.00 | 0.06 | 0.03 | 62 | 1012.8 |
| 20260507160504 | 52 | 321 | 2.6 | 9.6 | 0.00 | 0.06 | 0.03 | 64 | 1012.8 |
| 20260507160009 | 52 | 309 | 4.3 | 10.4 | 0.00 | 0.06 | 0.03 | 63 | 1012.8 |
| 20260507155505 | 52 | 317 | 1.7 | 10.4 | 0.00 | 0.06 | 0.03 | 64 | 1012.8 |
| 20260507155007 | 52 | 306 | 7.0 | 9.6 | 0.00 | 0.06 | 0.03 | 63 | 1012.8 |
| 20260507154515 | 52 | 254 | 0.9 | 5.2 | 0.00 | 0.06 | 0.03 | 62 | 1012.8 |
| 20260507154003 | 52 | 252 | 1.7 | 8.7 | 0.00 | 0.06 | 0.03 | 62 | 1012.8 |
| 20260507153504 | 52 | 261 | 1.7 | 8.7 | 0.00 | 0.06 | 0.03 | 65 | 1012.9 |
| 20260507153005 | 52 | 18 | 0.9 | 8.7 | 0.00 | 0.06 | 0.03 | 62 | 1012.8 |
| 20260507152503 | 52 | 329 | 2.6 | 7.8 | 0.00 | 0.06 | 0.03 | 64 | 1012.8 |
| 20260507152003 | 51 | 5 | 1.7 | 7.8 | 0.00 | 0.06 | 0.03 | 65 | 1012.9 |
| 20260507151503 | 51 | 158 | 2.6 | 7.8 | 0.00 | 0.06 | 0.03 | 65 | 1013.0 |
| 20260507151003 | 50 | 247 | 0.9 | 7.8 | 0.00 | 0.06 | 0.03 | 66 | 1013.0 |
| 20260507150503 | 51 | 346 | 3.5 | 7.8 | 0.00 | 0.06 | 0.03 | 67 | 1013.0 |
| 20260507150011 | 51 | 333 | 1.7 | 5.2 | 0.00 | 0.06 | 0.03 | 65 | 1013.0 |
| 20260507145510 | 50 | 316 | 0.0 | 8.7 | 0.00 | 0.06 | 0.03 | 66 | 1013.2 |
| 20260507145003 | 50 | 5 | 1.7 | 8.7 | 0.00 | 0.06 | 0.03 | 66 | 1013.3 |
| 20260507144511 | 50 | 316 | 5.2 | 9.6 | 0.00 | 0.06 | 0.03 | 63 | 1013.3 |
| 20260507144005 | 51 | 300 | 4.3 | 9.6 | 0.00 | 0.06 | 0.03 | 62 | 1013.3 |
| 20260507143511 | 51 | 341 | 1.7 | 7.0 | 0.00 | 0.06 | 0.03 | 68 | 1013.2 |
| 20260507143015 | 50 | 39 | 3.5 | 7.0 | 0.00 | 0.06 | 0.03 | 71 | 1013.4 |
| 20260507142505 | 50 | 335 | 2.6 | 7.8 | 0.00 | 0.06 | 0.03 | 70 | 1013.5 |
| 20260507142006 | 50 | 335 | 4.3 | 9.6 | 0.00 | 0.06 | 0.03 | 69 | 1013.6 |
| 20260507141503 | 50 | 315 | 6.1 | 9.6 | 0.00 | 0.06 | 0.03 | 71 | 1013.5 |
| 20260507141007 | 50 | 311 | 0.9 | 3.5 | 0.00 | 0.06 | 0.03 | 75 | 1013.5 |
| 20260507140503 | 50 | 323 | 0.9 | 4.3 | 0.00 | 0.06 | 0.03 | 77 | 1013.6 |
| 20260507140005 | 49 | 211 | 2.6 | 4.3 | 0.00 | 0.06 | 0.03 | 80 | 1013.6 |
| 20260507135503 | 49 | 26 | 1.7 | 3.5 | 0.00 | 0.06 | 0.03 | 79 | 1013.6 |
| 20260507135003 | 49 | 205 | 0.0 | 3.5 | 0.00 | 0.06 | 0.03 | 80 | 1013.5 |
| 20260507134512 | 49 | 319 | 1.7 | 3.5 | 0.00 | 0.06 | 0.03 | 80 | 1013.7 |
| 20260507134002 | 49 | 318 | 1.7 | 3.5 | 0.00 | 0.06 | 0.03 | 83 | 1013.7 |
| 20260507133503 | 48 | 124 | 0.9 | 3.5 | 0.00 | 0.06 | 0.03 | 84 | 1013.7 |
| 20260507133014 | 48 | 69 | 0.0 | 2.6 | 0.00 | 0.06 | 0.03 | 86 | 1013.9 |
| 20260507132506 | 47 | 139 | 0.0 | 2.6 | 0.00 | 0.06 | 0.03 | 86 | 1013.9 |
| 20260507132010 | 47 | 126 | 0.9 | 2.6 | 0.00 | 0.06 | 0.03 | 86 | 1014.0 |
| 20260507131521 | 47 | 302 | 0.0 | 2.6 | 0.00 | 0.06 | 0.03 | 86 | 1014.1 |
| 20260507131006 | 47 | 125 | 0.0 | 1.7 | 0.00 | 0.06 | 0.03 | 88 | 1014.1 |
| 20260507130507 | 46 | 125 | 0.0 | 1.7 | 0.00 | 0.07 | 0.03 | 89 | 1014.2 |
| 20260507130008 | 46 | 186 | 0.0 | 1.7 | 0.00 | 0.07 | 0.03 | 87 | 1014.2 |
| 20260507125502 | 46 | 186 | 0.0 | 2.6 | 0.00 | 0.07 | 0.03 | 90 | 1014.3 |
| 20260507125003 | 46 | 198 | 0.9 | 2.6 | 0.00 | 0.08 | 0.03 | 91 | 1014.3 |
| 20260507124507 | 46 | 324 | 0.0 | 0.9 | 0.00 | 0.08 | 0.03 | 93 | 1014.3 |
| 20260507124011 | 46 | 324 | 0.0 | 0.9 | 0.00 | 0.09 | 0.03 | 93 | 1014.4 |
| 20260507123510 | 45 | 324 | 0.0 | 2.6 | 0.00 | 0.09 | 0.03 | 93 | 1014.4 |
| 20260507123010 | 45 | 324 | 0.0 | 2.6 | 0.00 | 0.09 | 0.03 | 94 | 1014.5 |
| 20260507122503 | 45 | 324 | 0.0 | 2.6 | 0.00 | 0.09 | 0.03 | 94 | 1014.5 |
| 20260507122009 | 45 | 319 | 0.0 | 0.0 | 0.00 | 0.10 | 0.03 | 94 | 1014.6 |
| 20260507121537 | 45 | 319 | 0.0 | 1.7 | 0.00 | 0.10 | 0.03 | 94 | 1014.5 |
| 20260507121007 | 45 | 319 | 0.0 | 2.6 | 0.00 | 0.12 | 0.03 | 95 | 1014.5 |
| 20260507120507 | 45 | 319 | 0.9 | 2.6 | 0.00 | 0.12 | 0.03 | 94 | 1014.5 |
| 20260507120021 | 45 | 262 | 0.0 | 0.0 | 0.00 | 0.14 | 0.03 | 94 | 1014.4 |
| 20260507115506 | 45 | 186 | 0.0 | 0.0 | 0.00 | 0.15 | 0.03 | 94 | 1014.4 |
| 20260507115010 | 45 | 159 | 0.0 | 0.0 | 0.00 | 0.16 | 0.03 | 94 | 1014.4 |
| 20260507114504 | 45 | 48 | 0.0 | 0.0 | 0.00 | 0.17 | 0.03 | 94 | 1014.2 |
| 20260507114003 | 45 | 48 | 0.0 | 0.0 | 0.00 | 0.20 | 0.03 | 94 | 1014.1 |
| 20260507113502 | 45 | 48 | 0.0 | 0.0 | 0.00 | 0.21 | 0.03 | 94 | 1014.0 |
| 20260507113008 | 45 | 156 | 0.0 | 0.0 | 0.00 | 0.23 | 0.03 | 94 | 1013.9 |
| 20260507112503 | 45 | 156 | 0.0 | 0.0 | 0.00 | 0.24 | 0.03 | 94 | 1013.8 |
| 20260507112004 | 45 | 156 | 0.0 | 0.0 | 0.00 | 0.24 | 0.03 | 94 | 1013.8 |
| 20260507111522 | 45 | 156 | 0.0 | 1.7 | 0.00 | 0.25 | 0.03 | 94 | 1013.8 |
| 20260507111008 | 45 | 156 | 0.0 | 2.6 | 0.00 | 0.25 | 0.03 | 94 | 1013.8 |
| 20260507110509 | 45 | 156 | 0.9 | 2.6 | 0.00 | 0.26 | 0.03 | 93 | 1013.8 |
| 20260507110027 | 45 | 175 | 0.9 | 2.6 | 0.00 | 0.26 | 0.03 | 94 | 1013.6 |
| 20260507105508 | 45 | 185 | 0.9 | 1.7 | 0.00 | 0.26 | 0.03 | 94 | 1013.6 |
| 20260507105007 | 45 | 184 | 0.0 | 1.7 | 0.00 | 0.27 | 0.03 | 94 | 1013.5 |
| 20260507104520 | 45 | 184 | 0.0 | 1.7 | 0.00 | 0.27 | 0.03 | 93 | 1013.5 |
| 20260507104008 | 45 | 184 | 0.9 | 2.6 | 0.00 | 0.28 | 0.03 | 93 | 1013.4 |
| 20260507103508 | 45 | 183 | 0.9 | 5.2 | 0.00 | 0.29 | 0.03 | 94 | 1013.5 |
| 20260507103027 | 45 | 210 | 1.7 | 5.2 | 0.00 | 0.30 | 0.03 | 93 | 1013.4 |
| 20260507102512 | 45 | 148 | 1.7 | 4.3 | 0.00 | 0.31 | 0.03 | 93 | 1013.4 |
| 20260507102007 | 45 | 209 | 0.0 | 2.6 | 0.00 | 0.32 | 0.03 | 93 | 1013.4 |
| 20260507101508 | 45 | 213 | 0.9 | 3.5 | 0.01 | 0.34 | 0.03 | 92 | 1013.4 |
| 20260507101004 | 45 | 266 | 0.9 | 5.2 | 0.01 | 0.34 | 0.03 | 92 | 1013.3 |
| 20260507100503 | 45 | 287 | 1.7 | 8.7 | 0.01 | 0.36 | 0.03 | 92 | 1013.3 |
| 20260507100032 | 45 | 325 | 1.7 | 8.7 | 0.01 | 0.37 | 0.03 | 92 | 1013.3 |
| 20260507095008 | 45 | 323 | 2.6 | 9.6 | 0.01 | 0.41 | 0.03 | 93 | 1013.3 |
| 20260507094522 | 45 | 301 | 5.2 | 11.3 | 0.01 | 0.42 | 0.03 | 93 | 1013.3 |
| 20260507094007 | 45 | 311 | 4.3 | 11.3 | 0.01 | 0.43 | 0.03 | 93 | 1013.1 |
| 20260507093507 | 45 | 296 | 5.2 | 10.4 | 0.01 | 0.44 | 0.03 | 93 | 1013.1 |
| 20260507093035 | 45 | 294 | 7.0 | 10.4 | 0.02 | 0.44 | 0.03 | 94 | 1013.0 |
| 20260507092507 | 46 | 310 | 3.5 | 6.1 | 0.02 | 0.44 | 0.03 | 95 | 1013.0 |
| 20260507092011 | 46 | 9 | 3.5 | 8.7 | 0.02 | 0.44 | 0.03 | 95 | 1012.8 |
| 20260507091528 | 46 | 326 | 3.5 | 8.7 | 0.01 | 0.43 | 0.02 | 96 | 1013.0 |
| 20260507091009 | 46 | 5 | 1.7 | 6.1 | 0.01 | 0.43 | 0.02 | 97 | 1013.0 |
| 20260507090508 | 46 | 159 | 0.0 | 0.0 | 0.01 | 0.43 | 0.02 | 97 | 1012.9 |
| 20260507090030 | 46 | 159 | 0.0 | 0.0 | 0.01 | 0.43 | 0.02 | 97 | 1013.0 |
| 20260507085507 | 46 | 159 | 0.0 | 0.0 | 0.01 | 0.43 | 0.02 | 96 | 1013.2 |
| 20260507085004 | 46 | 159 | 0.0 | 0.0 | 0.01 | 0.43 | 0.02 | 97 | 1013.2 |
| 20260507084504 | 46 | 126 | 0.0 | 0.0 | 0.01 | 0.43 | 0.02 | 97 | 1013.2 |
| 20260507084013 | 46 | 126 | 0.0 | 0.0 | 0.01 | 0.43 | 0.02 | 97 | 1013.0 |
| 20260507083504 | 46 | 126 | 0.0 | 0.0 | 0.01 | 0.43 | 0.02 | 97 | 1013.0 |
| 20260507083048 | 46 | 126 | 0.0 | 0.0 | 0.00 | 0.42 | 0.01 | 96 | 1013.0 |
| 20260507082543 | 46 | 126 | 0.0 | 1.7 | 0.00 | 0.42 | 0.01 | 96 | 1012.9 |
| 20260507082009 | 46 | 126 | 0.0 | 1.7 | 0.00 | 0.42 | 0.01 | 96 | 1012.8 |
| 20260507081515 | 46 | 126 | 0.9 | 1.7 | 0.00 | 0.42 | 0.01 | 96 | 1013.0 |
| 20260507081010 | 46 | 126 | 0.0 | 1.7 | 0.00 | 0.42 | 0.01 | 96 | 1013.0 |
| 20260507080507 | 46 | 124 | 0.9 | 1.7 | 0.00 | 0.42 | 0.01 | 96 | 1013.1 |
| 20260507080033 | 46 | 124 | 0.0 | 1.7 | 0.00 | 0.42 | 0.01 | 96 | 1013.2 |
| 20260507075509 | 46 | 124 | 0.0 | 1.7 | 0.00 | 0.42 | 0.01 | 96 | 1013.3 |
| 20260507075006 | 46 | 122 | 0.9 | 1.7 | 0.00 | 0.42 | 0.01 | 96 | 1013.2 |
| 20260507074529 | 46 | 123 | 0.0 | 2.6 | 0.00 | 0.42 | 0.01 | 96 | 1013.0 |
| 20260507074007 | 46 | 123 | 1.7 | 2.6 | 0.00 | 0.42 | 0.01 | 96 | 1013.0 |
| 20260507073512 | 46 | 116 | 0.0 | 2.6 | 0.00 | 0.42 | 0.01 | 96 | 1013.1 |
| 20260507073005 | 47 | 117 | 0.9 | 2.6 | 0.00 | 0.42 | 0.01 | 96 | 1013.1 |
| 20260507072504 | 47 | 87 | 0.0 | 2.6 | 0.00 | 0.42 | 0.01 | 96 | 1013.2 |
| 20260507072006 | 47 | 115 | 0.9 | 2.6 | 0.00 | 0.42 | 0.01 | 96 | 1013.2 |
| 20260507071512 | 47 | 98 | 0.0 | 1.7 | 0.00 | 0.42 | 0.01 | 96 | 1013.1 |
| 20260507071003 | 47 | 94 | 0.0 | 0.0 | 0.00 | 0.42 | 0.01 | 96 | 1013.2 |
| 20260507070504 | 47 | 94 | 0.0 | 0.0 | 0.00 | 0.42 | 0.01 | 95 | 1013.0 |
| 20260507070013 | 47 | 94 | 0.0 | 0.0 | 0.00 | 0.42 | 0.01 | 95 | 1013.0 |
| 20260507065507 | 47 | 125 | 0.0 | 1.7 | 0.00 | 0.42 | 0.01 | 96 | 1012.9 |
| 20260507065005 | 47 | 133 | 0.0 | 2.6 | 0.00 | 0.42 | 0.01 | 95 | 1013.0 |
| 20260507064516 | 47 | 94 | 0.9 | 2.6 | 0.00 | 0.42 | 0.01 | 94 | 1013.0 |
| 20260507064007 | 47 | 131 | 0.0 | 2.6 | 0.00 | 0.42 | 0.01 | 94 | 1013.1 |
| 20260507063508 | 47 | 125 | 0.9 | 1.7 | 0.00 | 0.42 | 0.01 | 94 | 1013.1 |
| 20260507063020 | 47 | 84 | 0.0 | 1.7 | 0.00 | 0.42 | 0.01 | 94 | 1013.2 |
| 20260507062510 | 47 | 84 | 0.0 | 2.6 | 0.00 | 0.42 | 0.01 | 94 | 1013.0 |
| 20260507061536 | 47 | 53 | 0.0 | 1.7 | 0.00 | 0.42 | 0.01 | 93 | 1013.1 |
| 20260507061006 | 47 | 352 | 0.0 | 0.0 | 0.00 | 0.42 | 0.01 | 93 | 1013.2 |
| 20260507060504 | 47 | 352 | 0.0 | 0.0 | 0.00 | 0.42 | 0.01 | 93 | 1013.3 |
| 20260507060007 | 48 | 30 | 0.0 | 2.6 | 0.00 | 0.42 | 0.01 | 93 | 1013.5 |
| 20260507055503 | 48 | 30 | 0.0 | 3.5 | 0.01 | 0.42 | 0.01 | 92 | 1013.6 |
| 20260507055009 | 48 | 49 | 0.9 | 3.5 | 0.01 | 0.42 | 0.01 | 93 | 1013.6 |
| 20260507054511 | 48 | 45 | 0.9 | 2.6 | 0.01 | 0.42 | 0.01 | 93 | 1013.6 |
| 20260507053507 | 48 | 38 | 0.0 | 7.0 | 0.01 | 0.42 | 0.01 | 93 | 1013.9 |
| 20260507053016 | 48 | 304 | 0.9 | 7.0 | 0.01 | 0.42 | 0.01 | 92 | 1013.8 |
| 20260507052506 | 48 | 298 | 1.7 | 4.3 | 0.01 | 0.42 | 0.01 | 92 | 1013.8 |
| 20260507052006 | 48 | 273 | 1.7 | 6.1 | 0.01 | 0.42 | 0.01 | 93 | 1013.7 |
| 20260507051521 | 48 | 323 | 1.7 | 7.0 | 0.01 | 0.42 | 0.01 | 92 | 1013.8 |
| 20260507051010 | 48 | 265 | 2.6 | 10.4 | 0.01 | 0.42 | 0.01 | 91 | 1013.7 |
| 20260507050507 | 49 | 283 | 0.9 | 10.4 | 0.01 | 0.42 | 0.01 | 92 | 1013.8 |
| 20260507050021 | 49 | 319 | 6.1 | 10.4 | 0.01 | 0.42 | 0.01 | 91 | 1013.6 |
| 20260507045503 | 49 | 328 | 3.5 | 10.4 | 0.00 | 0.41 | 0.00 | 91 | 1013.5 |
| 20260507045004 | 49 | 311 | 4.3 | 10.4 | 0.00 | 0.41 | 0.00 | 91 | 1013.7 |
| 20260507044505 | 50 | 5 | 1.7 | 5.2 | 0.00 | 0.41 | 0.00 | 93 | 1013.4 |
| 20260507044003 | 50 | 323 | 0.9 | 3.5 | 0.00 | 0.41 | 0.00 | 94 | 1013.3 |